カタログに戻る

STARLINK-37865

運用中通信SSO
NORAD 69550·PAYLOAD·🇺🇸 United States

打ち上げ Jun 15, 2026 から Vandenberg Space Force Base

Loading…

次のパス (今後24時間)

TLE

最新Source: CelesTrak SupGP

元期: Sep 15, 2026, 03:26 UTC

1 69550C 26135E   26258.14354167 -.00039363  00000+0 -12219-2 0  2586
2 69550  97.2837 285.8628 0001222  88.1221  15.3565 15.33458804    18

AllMySatでSTARLINK-37865をリアルタイム追跡

Download on the App Store